Weather History for PASI - January, 2014

Change the Weather History Date:

Sunday, January 19, 2014

  Actual Average Record
Temperature  
Mean Temperature 41 °F -  
Max Temperature 45 °F 40 °F 56 °F (1961)
Min Temperature 37 °F 32 °F 5 °F (1972)
Degree Days  
Heating Degree Days 24    
Moisture  
Dew Point 34 °F    
Average Humidity 77    
Maximum Humidity 93    
Minimum Humidity 58    
Precipitation  
Precipitation 0.10 in - - ()
Sea Level Pressure  
Sea Level Pressure 30.14 in    
Wind  
Wind Speed 9 mph (ESE)    
Max Wind Speed 16 mph    
Max Gust Speed -    
Visibility 10 miles    
Events Rain    
Averages and records for this station are not official NWS values.
T = Trace of Precipitation, MM = Missing Value Source: NWS Daily Summary

Daily Weather History Graph

Daily Weather History Graph

Search for Another Location

Airport or City:

Trip Planner

Search our weather history database for the weather conditions in past years. The results will help you decide how hot, cold, wet, or windy it might be!

Date:

Astronomy

Jan. 19, 2014 Rise Set
Actual Time 8:23 AM AKST 4:02 PM AKST
Civil Twilight 7:37 AM AKST 4:47 PM AKST
Nautical Twilight 6:49 AM AKST 5:35 PM AKST
Astronomical Twilight 6:03 AM AKST 6:21 PM AKST
Moon 8:42 PM AKST (1/19) 9:06 AM AKST (1/19)
Length of Visible Light 9h 09m
Length of Day
7h 39m
Waning Gibbous, 88% of the Moon is Illuminated
Jan 19
Waning Gibbous
Jan 23
Last Quarter
Jan 30
New
Feb 6
First Quarter
Feb 14
Full

Hourly Weather History & Observations

Time (AKST) Temp. Windchill Dew Point Humidity Pressure Visibility Wind Dir Wind Speed Gust Speed Precip Events Conditions
12:53 AM 39.0 °F 34.0 °F 37.0 °F 93% 30.10 in 10.0 mi ESE 6.9 mph - N/A   Scattered Clouds
1:53 AM 39.0 °F 33.4 °F 36.0 °F 89% 30.12 in 10.0 mi ESE 8.1 mph - N/A   Scattered Clouds
2:53 AM 37.9 °F 32.7 °F 36.0 °F 93% 30.12 in 10.0 mi East 6.9 mph - N/A   Mostly Cloudy
3:53 AM 39.0 °F 32.8 °F 36.0 °F 89% 30.12 in 10.0 mi ESE 9.2 mph - N/A   Mostly Cloudy
4:53 AM 39.9 °F 33.9 °F 35.1 °F 83% 30.12 in 10.0 mi ESE 9.2 mph - N/A   Mostly Cloudy
5:53 AM 39.9 °F 33.9 °F 35.1 °F 83% 30.13 in 10.0 mi East 9.2 mph - N/A   Overcast
6:53 AM 39.0 °F - 36.0 °F 89% 30.13 in 10.0 mi Calm Calm - N/A   Overcast
7:53 AM 37.0 °F 31.6 °F 34.0 °F 89% 30.13 in 10.0 mi East 6.9 mph - N/A   Overcast
8:53 AM 39.0 °F 33.4 °F 34.0 °F 82% 30.13 in 10.0 mi ESE 8.1 mph - N/A   Overcast
9:53 AM 39.0 °F 35.7 °F 34.0 °F 82% 30.14 in 10.0 mi NE 4.6 mph - N/A   Mostly Cloudy
10:53 AM 39.9 °F - 36.0 °F 86% 30.17 in 10.0 mi Calm Calm - N/A   Mostly Cloudy
11:53 AM 44.1 °F 39.0 °F 34.0 °F 68% 30.16 in 10.0 mi East 9.2 mph - N/A   Overcast
12:53 PM 44.1 °F 37.7 °F 33.1 °F 65% 30.16 in 10.0 mi ESE 12.7 mph - N/A   Overcast
1:53 PM 45.0 °F 38.9 °F 30.9 °F 58% 30.16 in 10.0 mi ESE 12.7 mph - N/A   Overcast
2:53 PM 44.1 °F 38.1 °F 30.9 °F 60% 30.15 in 10.0 mi ESE 11.5 mph - N/A   Mostly Cloudy
3:53 PM 44.1 °F 37.7 °F 32.0 °F 63% 30.14 in 10.0 mi ESE 12.7 mph - N/A   Overcast
4:53 PM 44.1 °F 38.6 °F 30.9 °F 60% 30.14 in 10.0 mi ESE 10.4 mph - N/A   Scattered Clouds
5:53 PM 44.1 °F 38.1 °F 32.0 °F 63% 30.13 in 10.0 mi ESE 11.5 mph - N/A   Scattered Clouds
6:53 PM 45.0 °F 38.5 °F 32.0 °F 60% 30.12 in 10.0 mi ESE 13.8 mph - N/A   Overcast
7:53 PM 44.1 °F 36.8 °F 34.0 °F 68% 30.14 in 10.0 mi East 16.1 mph - 0.00 in Rain Light Rain
8:53 PM 43.0 °F 36.4 °F 37.0 °F 80% 30.15 in 10.0 mi ESE 12.7 mph - 0.02 in Rain Light Rain
9:53 PM 43.0 °F 35.4 °F 36.0 °F 76% 30.15 in 10.0 mi ESE 16.1 mph - 0.02 in Rain Light Rain
10:53 PM 43.0 °F 36.8 °F 37.0 °F 80% 30.16 in 10.0 mi East 11.5 mph - 0.03 in Rain Light Rain
11:53 PM 43.0 °F 36.8 °F 37.9 °F 82% 30.15 in 8.0 mi ESE 11.5 mph - 0.03 in Rain Light Rain